Simultaneous Nadir Overpasses (SNOs) Predictions

Prediction of SNOs between METOP-B and NPP Satellite Orbit:

Table of predicted SNOs for the next 14.0 days since TLE Epoch: 4/9/2024
Index Date (METOP-B) Time (METOP-B) Lat,Lon (METOP-B) SZA (METOP-B ) Date (NPP) Time (NPP) Lat,Lon (NPP) SZA (NPP ) Distance(km) Time Diff (sec)
1 04/23/2024 01:56:30 73.87, 143.28 61.27 04/23/2024 01:55:23 73.88, 140.59 61.41 83.01 67
2 04/23/2024 02:47:14 -73.76, -49.65 118.85 04/23/2024 02:46:05 -73.76, -51.82 118.73 67.51 69
3 04/23/2024 03:37:57 73.55, 117.19 60.96 04/23/2024 03:36:45 73.53, 116.03 61.01 36.67 72



Historial Predications of SNOs between METOP-B and NPP
